Location: Cussy
(47.0410°N, 4.6412°E)
Time: 05:38:35
(UTC+00:00)

YAOGAN 6 - Pass Details

Date: 30 November 2020
Orbit: 465 x 502 km, 97.0° (Epoch: 18 January)

Event Time Altitude Azimuth Distance (km) Brightness Sun altitude
Rises 17:11:06 0° 183° (S) 2,567 6.5 -12.6°
Reaches altitude 10° 17:13:16 10° 190° (S) 1,685 5.7 -13.0°
Maximum altitude 17:16:43 41° 262° (W) 725 4.0 -13.5°
Drops below altitude 10° 17:20:09 10° 334° (NNW) 1,679 5.4 -14.1°
Sets 17:22:18 0° 342° (NNW) 2,558 6.3 -14.4°
